Raduga-1

operational
NORAD ID: 22981 Int'l Des: 1994-008 Owner: VKS Country: RU
MEOCIRCULAR

Über Raduga-1

Beschreibung wird geladen...

Live-Position

3D-Globus wird geladen...

Nächste Überflüge

Höhenverlauf

Altitude vs Time

uPlot chart will show altitude changes over time

Zweizeiliger Elementsatz

1 22981U 94008A 26060.88721244 -.00000014 00000-0 00000-0 0 9999
2 22981 14.2136 349.0199 0001869 281.2857 270.8696 1.00322518117406
Epoch: 1. März 2026 • Age: 52 hours

Aktueller Status

Höhe 35766.9 km
Geschwindigkeit 3.08 km/s
Subsatellitenpunkt -13.43°S, 62.9°E
Startdatum 5. Feb. 1994
Alter 32 years
Typ other

Technische Details

Klassifizierung Payload
Masse 2500.00 kg
Trockenmasse 2200.00 kg
Gesamtmasse 2500.00 kg
Länge 5.00 m
Durchmesser 2.00 m
Spannweite 20.00 m
Form Step Cyl + 2 Pan
Hersteller NPOPMR
Bus-Typ Globus
Phasenstatus In Orbit
Besitzer/Staat VKS/RU

Große Konstellationen

Loading constellations...